KC9EM-13 Weather Reports


time (UTC)temp
C
wind
direction
speed
KPH
gust
KPH
rain 1hr
cm
rain 24hr
cm
rain mn
cm
humidity
%
barometer
mb
20260905190103 35 299 3.2 8.0 0.00 0.00 0.00 47 1012.1
20260905184609 35 274 4.8 16.1 0.00 0.00 0.00 46 1012.3
20260905183114 33 32 6.4 16.1 0.00 0.00 0.00 48 1012.5
20260905181558 34 27 6.4 17.7 0.00 0.00 0.00 46 1012.6
20260905180057 35 250 3.2 9.7 0.00 0.00 0.00 46 1012.8
20260905174601 33 82 1.6 8.0 0.00 0.00 0.00 51 1013.0
20260905173056 33 68 1.6 11.3 0.00 0.00 0.00 52 1013.2
20260905171604 33 55 3.2 12.9 0.00 0.00 0.00 51 1013.6
20260905170108 33 0 0.0 12.9 0.00 0.00 0.00 53 1013.8
20260905164605 31 109 1.6 11.3 0.00 0.00 0.00 56 1013.9
20260905163104 31 44 3.2 12.9 0.00 0.00 0.00 55 1013.9
20260905161602 31 0 3.2 11.3 0.00 0.00 0.00 56 1013.9
20260905154554 30 147 4.8 11.3 0.00 0.00 0.00 58 1014.5
20260905153102 30 101 3.2 9.7 0.00 0.00 0.00 60 1014.4
20260905151558 29 46 4.8 9.7 0.00 0.00 0.00 60 1014.4
20260905150100 28 147 3.2 11.3 0.00 0.00 0.00 62 1014.2
20260905144553 28 49 1.6 12.9 0.00 0.00 0.00 67 1014.7
20260905143101 28 81 1.6 14.5 0.00 0.00 0.00 67 1014.2
20260905141554 28 22 3.2 12.9 0.00 0.00 0.00 65 1014.5
20260905140127 27 13 4.8 8.0 0.00 0.00 0.00 67 1014.2
20260905134604 27 0 1.6 6.4 0.00 0.00 0.00 71 1014.0
20260905133055 26 201 1.6 6.4 0.00 0.00 0.00 73 1014.1
20260905131616 25 0 0.0 0.0 0.00 0.00 0.00 75 1014.2
20260905130058 24 0 0.0 0.0 0.00 0.00 0.00 78 1014.2
20260905124605 23 0 0.0 0.0 0.00 0.00 0.00 81 1014.2
20260905123110 23 0 0.0 0.0 0.00 0.00 0.00 81 1014.3
20260905121558 22 0 0.0 0.0 0.00 0.00 0.00 81 1014.3
20260905120058 22 0 0.0 0.0 0.00 0.00 0.00 81 1014.2
20260905114556 22 0 0.0 0.0 0.00 0.00 0.00 80 1014.0
20260905113051 22 0 0.0 0.0 0.00 0.00 0.00 80 1013.8
20260905111603 22 0 0.0 0.0 0.00 0.00 0.00 80 1013.6
20260905110056 22 0 0.0 0.0 0.00 0.00 0.00 79 1013.4
20260905104609 22 0 0.0 0.0 0.00 0.00 0.00 79 1013.4
20260905103100 23 0 0.0 0.0 0.00 0.00 0.00 79 1013.4
20260905101604 23 0 0.0 0.0 0.00 0.00 0.00 79 1013.8
20260905094557 23 0 0.0 0.0 0.00 0.00 0.00 78 1013.6
20260905093058 23 0 0.0 0.0 0.00 0.00 0.00 78 1013.4
20260905091558 23 0 0.0 0.0 0.00 0.00 0.00 77 1013.2
20260905090123 23 0 0.0 0.0 0.00 0.00 0.00 76 1013.2
20260905084611 23 0 0.0 0.0 0.00 0.00 0.00 76 1013.0
20260905083055 23 0 0.0 0.0 0.00 0.00 0.00 76 1012.8
20260905081555 23 0 0.0 0.0 0.00 0.00 0.00 76 1012.9
20260905080056 23 0 0.0 0.0 0.00 0.00 0.00 77 1013.0
20260905074551 23 0 0.0 0.0 0.00 0.00 0.00 78 1013.2
20260905073101 24 0 0.0 0.0 0.00 0.00 0.00 78 1013.2
20260905071555 24 0 0.0 0.0 0.00 0.00 0.00 78 1013.1
20260905070058 24 0 0.0 0.0 0.00 0.00 0.00 77 1013.2
20260905064559 25 0 0.0 0.0 0.00 0.00 0.00 77 1013.3
20260905063057 25 0 0.0 0.0 0.00 0.00 0.00 76 1013.4
20260905061556 25 0 0.0 0.0 0.00 0.00 0.00 74 1013.7
20260905060100 25 0 0.0 0.0 0.00 0.00 0.00 74 1013.6
20260905054555 25 0 0.0 0.0 0.00 0.00 0.00 73 1013.7
20260905053102 26 0 0.0 0.0 0.00 0.00 0.00 73 1013.9
20260905051554 26 0 0.0 0.0 0.00 0.00 0.00 71 1013.9
20260905044554 26 196 1.6 4.8 0.00 0.00 0.00 70 1013.9
20260905043059 26 209 3.2 8.0 0.00 0.00 0.00 70 1013.7
20260905041600 26 221 1.6 4.8 0.00 0.00 0.00 70 1013.9
20260905040053 26 192 4.8 11.3 0.00 0.00 0.00 69 1013.9
20260905034609 27 214 3.2 9.7 0.00 0.00 0.00 69 1013.9
20260905033109 27 0 0.0 4.8 0.00 0.00 0.00 67 1013.9
20260905031600 27 174 3.2 8.0 0.00 0.00 0.00 66 1014.1
20260905030051 27 207 3.2 8.0 0.00 0.00 0.00 65 1013.9
20260905024557 28 0 0.0 0.0 0.00 0.00 0.00 65 1013.9
20260905023056 28 0 0.0 4.8 0.00 0.00 0.00 64 1013.9
20260905021556 28 122 0.0 4.8 0.00 0.00 0.00 63 1013.8
20260905020053 28 113 3.2 11.3 0.00 0.00 0.00 62 1013.8
20260905014557 28 122 4.8 9.7 0.00 0.00 0.00 62 1013.7
20260905013119 29 0 3.2 8.0 0.00 0.00 0.00 61 1013.4
20260905011600 29 0 0.0 4.8 0.00 0.00 0.00 61 1013.4
20260905010106 29 0 1.6 6.4 0.00 0.00 0.00 60 1013.2
20260905004647 30 0 0.0 3.2 0.00 0.00 0.00 58 1013.1
20260905003057 31 0 0.0 3.2 0.00 0.00 0.00 57 1012.9
20260905001607 31 349 0.0 6.4 0.00 0.00 0.00 53 1012.9
20260905000059 32 0 0.0 0.0 0.00 0.00 0.00 47 1013.0
20260904234603 33 0 0.0 3.2 0.00 0.00 0.00 47 1012.9
20260904233058 35 0 0.0 1.6 0.00 0.00 0.00 43 1012.9
20260904231554 36 0 0.0 3.2 0.00 0.00 0.00 42 1012.9
20260904230109 36 348 0.0 4.8 0.00 0.00 0.00 41 1012.9
20260904224559 35 0 0.0 4.8 0.00 0.00 0.00 44 1012.8
20260904223058 35 348 1.6 4.8 0.00 0.00 0.00 43 1012.9
20260904221601 34 348 1.6 8.0 0.00 0.00 0.00 44 1013.0
20260904220057 34 349 3.2 6.4 0.00 0.00 0.00 45 1013.1
20260904214612 34 349 1.6 6.4 0.00 0.00 0.00 44 1013.1
20260904213056 33 348 3.2 8.0 0.00 0.00 0.00 47 1013.2
20260904211601 34 348 1.6 6.4 0.00 0.00 0.00 45 1013.4
20260904210100 35 348 6.4 12.9 0.00 0.00 0.00 42 1013.3
20260904204557 36 0 0.0 3.2 0.00 0.00 0.00 42 1013.5
20260904203054 36 292 3.2 12.9 0.00 0.00 0.00 40 1013.7
20260904201601 36 222 1.6 8.0 0.00 0.00 0.00 42 1014.0
20260904200107 35 360 1.6 14.5 0.00 0.00 0.00 45 1014.3
20260904194610 35 351 1.6 8.0 0.00 0.00 0.00 43 1014.5
20260904193055 36 271 0.0 4.8 0.00 0.00 0.00 43 1014.9
20260904191557 35 19 4.8 11.3 0.00 0.00 0.00 43 1015.1